This is the latest recevied weather packets stored in our database for station/object DB0WUN-13. If no packets are shown the sender has not sent any weather packets the latest 1 day(s).
| Time | Temp. | Humidity | Pressure | Rain* | Wind** | Luminosity | Snow |
|---|---|---|---|---|---|---|---|
| 1778005780 | 11.67° C | 89% | 1008.1 hPa | 8.64 mm | 0 m/s | 0 W/m² | - |
| 1778005739 | 11.67° C | 89% | 1008.1 hPa | 8.38 mm | 0 m/s | 0 W/m² | - |
| 1778005702 | 11.67° C | 89% | 1008.1 hPa | 8.38 mm | 0 m/s | 0 W/m² | - |
| 1778005664 | 11.67° C | 89% | 1008.1 hPa | 8.38 mm | 0 m/s | 0 W/m² | - |
| 1778005632 | 11.67° C | 89% | 1008.1 hPa | 8.38 mm | 0 m/s | 0 W/m² | - |
| 1778005587 | 11.67° C | 89% | 1008.1 hPa | 8.38 mm | 0 m/s | 0 W/m² | - |
| 1778005395 | 11.67° C | 89% | 1007.9 hPa | 8.38 mm | 0 m/s | 0 W/m² | - |
| 1778005335 | 11.67° C | 89% | 1007.9 hPa | 8.38 mm | 0.45 m/s, 39° | 0 W/m² | - |
| 1778005278 | 11.67° C | 88% | 1007.9 hPa | 8.38 mm | 0.45 m/s, 39° | 0 W/m² | - |
| 1778005220 | 11.67° C | 88% | 1007.9 hPa | 8.38 mm | 0.89 m/s, 39° | 0 W/m² | - |
| 1778005157 | 11.67° C | 88% | 1007.9 hPa | 8.38 mm | 0.89 m/s, 39° | 0 W/m² | - |
| 1778005090 | 11.67° C | 88% | 1007.8 hPa | 8.38 mm | 1.34 m/s, 39° | 0 W/m² | - |
| 1778005030 | 11.67° C | 88% | 1007.9 hPa | 8.13 mm | 1.34 m/s, 38° | 0 W/m² | - |
| 1778004966 | 11.67° C | 88% | 1007.8 hPa | 8.13 mm | 1.79 m/s, 29° | 0 W/m² | - |
| 1778004922 | 11.67° C | 88% | 1007.9 hPa | 8.13 mm | 1.79 m/s, 331° | 0 W/m² | - |
| 1778004844 | 12.22° C | 88% | 1007.9 hPa | 8.13 mm | 2.24 m/s, 288° | 0 W/m² | - |
| 1778004784 | 12.22° C | 88% | 1007.9 hPa | 7.87 mm | 2.24 m/s, 248° | 0 W/m² | - |
| 1778004728 | 12.22° C | 88% | 1007.9 hPa | 7.87 mm | 2.68 m/s, 306° | 0 W/m² | - |
| 1778004658 | 12.22° C | 88% | 1007.8 hPa | 7.87 mm | 2.68 m/s, 276° | 0 W/m² | - |
| 1778004592 | 12.22° C | 87% | 1007.8 hPa | 7.87 mm | 3.13 m/s, 298° | 0 W/m² | - |
| 1778004535 | 12.22° C | 87% | 1007.8 hPa | 7.87 mm | 3.13 m/s, 264° | 0 W/m² | - |
| 1778004474 | 12.22° C | 87% | 1007.8 hPa | 7.87 mm | 3.13 m/s, 257° | 0 W/m² | - |
| 1778004417 | 12.22° C | 87% | 1007.8 hPa | 7.87 mm | 3.13 m/s, 286° | 0 W/m² | - |
| 1778004349 | 12.22° C | 87% | 1007.9 hPa | 7.62 mm | 3.58 m/s, 220° | 0 W/m² | - |
| 1778004283 | 12.22° C | 87% | 1007.9 hPa | 7.62 mm | 3.58 m/s, 269° | 0 W/m² | - |
* Rain latest hour (hover to see other rain measurements)
** Current wind speed in m/s (hover to see current wind gust speed)